Temperature
19 19 19 19 19 19 19 19 19 19 19 19 19 19 19 19 18 18 18 18 18 19 19 19 19 19 19 19 19 19 19 19 19 19 19 19 19 19 19 19 19 18 19
19 19 19 19 19 19 19 19 19 19 19 19 19 19 18 18 18 18 18 18 18 18 18 18 19 19 19 19 19 19 19 19 19 19 19 19 19 19 19 19 19 19 19
19 19 19 19 19 19 19 18 18 18 18 18 18 18 18 18 18 18 18 18 18 18 18 18 18 18 18 18 18 18 18 19 19 19 19 18 19 19 19 19 19 19 19
19 19 19 19 19 19 19 18 18 18 18 18 18 18 18 18 18 18 18 18 18 18 18 18 18 18 18 18 18 18 18 18 19 18 18 18 18 19 19 19 19 19 19
19 18 18 19 19 19 19 18 18 18 18 18 18 18 18 18 18 18 18 18 18 18 18 18 18 18 18 18 18 18 18 18 18 18 18 18 18 19 19 19 19 19 19
19 18 18 19 19 19 19 18 18 18 18 18 18 18 18 18 18 17 17 18 18 18 18 18 17 17 17 17 18 18 18 18 18 18 18 18 18 19 19 19 18 19 19
19 18 18 19 19 19 18 18 18 18 18 18 18 18 18 18 17 17 17 18 18 18 18 18 17 17 17 17 17 18 18 18 17 18 18 18 18 18 18 18 18 18 18
18 18 18 19 19 19 18 18 18 18 18 18 18 18 18 18 17 17 17 18 18 18 18 18 17 17 17 17 17 17 18 18 17 17 17 18 18 18 18 18 18 18 18
19 18 18 18 18 18 18 18 18 18 18 18 18 18 18 17 17 17 17 18 18 18 18 17 17 17 17 17 17 18 18 18 17 17 17 17 18 18 18 18 18 18 18
19 18 18 18 18 18 18 18 18 18 18 18 18 18 17 17 17 17 17 18 18 18 18 17 17 17 17 17 17 18 17 17 16 17 17 17 18 18 18 18 18 18 18
19 19 19 18 18 18 18 18 18 18 18 18 18 18 17 17 16 16 16 17 18 17 17 17 16 16 17 17 17 17 17 16 16 16 16 17 18 18 18 18 18 18 18
19 19 19 19 18 18 17 18 18 18 18 17 17 17 17 16 16 16 17 17 17 17 17 17 17 16 16 16 16 17 16 16 16 16 16 17 17 17 18 18 18 18 18
20 20 19 19 18 18 18 18 18 18 18 17 17 17 17 16 16 16 16 16 16 16 16 16 16 16 16 16 16 16 16 16 16 16 16 16 16 16 17 17 17 17 17
21 20 20 19 19 18 18 17 17 17 17 17 17 17 17 16 16 16 16 16 16 16 16 16 16 16 16 17 17 16 16 16 16 16 16 16 16 16 16 17 17 17 17
21 20 20 19 19 19 18 18 17 17 17 17 17 17 16 16 16 16 16 16 16 16 16 16 16 16 16 16 16 16 16 15 15 16 16 16 16 16 16 16 16 16 16
22 21 20 20 19 19 18 18 18 17 17 17 17 16 16 16 16 16 16 16 16 16 16 16 17 16 16 16 15 15 15 15 15 16 16 16 16 16 16 16 16 16 16
22 21 20 20 20 19 19 18 18 18 17 17 17 16 16 16 16 16 16 16 16 16 16 16 16 16 16 15 15 15 15 15 15 15 15 16 16 16 16 16 16 16 16
22 21 21 20 20 19 19 19 18 18 17 17 17 17 16 16 16 16 16 16 16 16 16 16 16 16 16 16 15 15 15 15 15 15 15 15 15 15 16 16 16 16 16
22 21 21 20 20 20 19 19 18 18 18 17 17 17 16 16 16 16 16 16 16 16 16 16 16 16 16 15 15 15 15 15 14 15 15 15 15 15 15 16 16 16 16
22 21 21 20 19 19 19 19 18 18 17 17 17 17 16 16 16 16 16 16 16 16 16 16 16 15 15 15 15 15 14 14 14 14 14 14 15 15 15 15 15 16 16
22 21 21 20 19 19 19 18 18 18 18 17 17 17 17 17 16 16 16 16 16 16 16 16 15 15 15 15 15 14 14 14 14 14 14 14 15 15 15 15 15 15 16
22 21 21 20 19 19 18 18 18 18 18 17 17 17 17 17 16 16 16 16 16 16 16 16 15 15 15 15 15 15 15 14 14 14 14 14 14 14 15 15 15 15 15
21 21 21 20 20 19 18 18 18 18 18 18 17 17 17 17 16 16 16 16 16 16 16 16 16 16 15 15 16 16 16 16 15 14 14 14 14 14 14 14 14 14 15
20 21 20 20 19 19 18 17 17 17 17 17 17 17 17 17 16 16 16 16 16 16 16 16 16 16 16 15 16 16 17 17 17 15 14 14 14 14 14 15 14 14 14
20 20 19 19 19 18 17 17 17 17 17 16 16 16 16 16 16 16 16 16 16 16 16 16 16 15 15 15 15 15 16 16 17 17 16 15 14 14 14 14 14 14 15
20 20 20 19 19 18 17 17 16 16 16 16 16 16 16 16 16 16 16 16 16 16 15 15 15 15 15 15 15 15 15 16 16 17 17 16 15 15 14 14 14 14 14
Wind_Speed
10 13 14 13 13 12 12 12 12 12 12 12 12 11 11 10 10 11 11 11 10 10 10 9 9 8 7 6 5 6 7 8 9 9 9 9 8 7 6 6 4 3 5
12 14 15 13 13 12 12 12 13 12 13 13 12 11 11 11 11 12 11 11 10 9 10 9 9 8 8 7 6 6 7 7 7 7 7 8 7 6 6 5 1 4 4
13 14 15 13 12 12 12 12 13 13 13 13 12 12 11 11 12 12 12 11 10 9 9 9 9 9 9 9 8 8 8 7 6 5 3 5 7 7 6 5 4 5 5
12 13 14 14 12 12 11 12 12 13 12 12 12 12 11 11 12 12 12 11 11 10 9 9 9 9 9 10 10 11 10 8 5 1 3 3 5 8 5 5 5 5 5
12 12 12 13 12 11 11 11 12 12 12 11 12 12 11 11 12 12 12 12 11 10 8 8 7 8 9 10 11 11 11 9 5 1 3 2 3 6 5 4 5 5 5
11 11 12 12 12 11 11 11 11 11 12 12 13 12 11 11 12 12 12 11 11 9 8 7 6 7 9 10 11 11 10 7 5 6 5 3 4 5 4 4 5 5 5
11 10 11 11 11 11 11 11 11 12 13 13 13 12 11 12 12 12 12 11 10 9 8 7 6 7 9 10 10 10 9 6 7 7 7 7 7 7 6 5 3 4 4
9 9 11 11 10 10 11 11 12 13 14 14 13 12 11 12 12 11 12 11 10 9 9 7 7 8 9 9 9 9 7 6 5 6 7 9 9 8 7 7 6 6 5
8 8 8 12 12 11 10 12 13 14 14 14 13 12 11 11 12 12 12 11 10 10 9 9 9 9 9 9 9 8 7 5 4 5 5 8 10 9 8 8 8 8 7
8 8 7 9 10 11 11 12 13 14 14 14 13 12 12 12 12 12 12 11 11 10 10 10 10 10 10 9 8 6 2 4 5 4 5 8 8 9 9 8 7 8 8
7 7 8 8 8 9 10 12 13 14 14 14 13 12 12 11 12 11 12 12 11 10 10 10 10 10 8 9 7 2 3 4 5 5 7 7 6 7 7 7 6 6 7
10 9 8 8 9 10 9 11 11 12 13 12 12 12 10 9 9 10 13 11 11 10 10 9 9 7 3 5 6 4 4 4 4 6 9 6 5 6 7 6 6 5 6
11 10 9 9 9 8 8 9 8 9 10 10 11 11 9 9 9 9 10 12 11 10 9 9 8 4 5 6 4 5 6 5 5 7 10 10 7 6 7 6 6 5 5
11 11 10 10 10 9 8 7 7 7 8 8 10 11 9 7 7 8 7 9 9 7 6 6 4 5 5 6 6 7 7 6 6 8 11 11 9 8 8 7 7 7 6
12 12 11 11 10 10 8 7 7 7 7 8 8 9 9 7 7 8 8 7 8 7 7 5 5 6 5 6 7 7 8 8 9 9 11 16 13 11 10 10 10 10 9
13 13 12 13 12 11 10 9 8 8 8 8 8 9 10 8 8 8 8 8 8 7 6 6 7 6 5 6 7 7 8 9 10 10 10 15 19 18 15 13 12 11 11
13 13 13 13 13 13 12 10 8 8 9 8 8 10 11 10 9 9 8 9 9 9 8 6 8 6 6 6 6 7 7 8 8 10 9 9 12 19 19 18 16 14 13
11 13 13 12 14 14 12 10 8 8 9 8 10 10 12 12 11 9 8 9 10 9 7 7 7 7 6 6 5 5 6 6 8 8 8 9 8 9 14 18 19 18 17
11 12 13 14 14 14 13 10 9 8 8 8 9 10 12 13 13 11 9 9 11 8 7 8 8 7 7 6 6 4 5 6 6 6 8 9 9 8 8 11 14 17 18
10 11 12 12 13 13 11 9 8 8 8 8 8 10 13 12 13 11 9 11 11 9 8 8 9 7 7 7 6 5 4 5 5 6 6 8 8 9 8 7 7 10 15
6 7 8 9 11 10 10 10 9 8 9 8 8 11 12 13 13 11 9 11 10 10 11 11 9 10 8 8 7 6 4 3 4 5 4 5 7 7 8 8 8 7 7
3 2 4 6 8 10 9 9 7 7 8 8 8 9 12 14 14 12 13 11 11 9 11 12 11 9 8 9 8 6 5 4 3 3 3 3 4 5 6 7 7 7 7
3 3 3 4 7 9 9 7 5 5 4 6 8 9 11 13 14 13 13 12 11 11 9 12 13 13 10 11 10 7 4 4 6 5 5 4 3 3 3 4 5 6 6
4 4 4 5 6 8 9 9 9 7 7 8 7 8 10 12 13 14 13 12 11 9 9 10 12 12 11 11 10 7 5 3 4 5 6 6 5 4 3 3 2 4 5
5 5 5 6 6 7 7 7 7 6 5 5 5 7 8 9 11 13 13 12 12 10 10 10 10 12 11 11 10 9 7 4 6 4 6 7 7 6 5 4 2 2 3
6 5 5 6 6 6 6 6 6 5 5 6 6 6 6 6 7 10 11 11 12 10 9 8 9 11 11 12 11 9 8 7 7 5 5 7 7 6 7 5 4 3 2
Wind_Direction
154 157 153 159 152 150 151 152 151 148 144 138 134 132 132 133 133 130 123 116 105 93 83 74 68 67 69 78 91 100 103 102 100 102 108 117 126 130 137 139 164 147 120
151 157 154 160 154 152 153 156 157 155 150 144 140 137 134 133 132 128 121 112 102 93 83 74 69 67 68 75 89 103 104 100 94 96 109 124 127 127 129 133 143 87 118
150 155 159 163 158 155 155 160 162 161 157 151 147 142 137 136 132 126 120 112 104 96 89 81 74 71 69 72 78 87 91 90 85 96 157 136 129 128 130 136 127 112 111
153 158 160 160 163 159 159 164 165 164 161 156 148 141 139 137 133 126 120 113 106 101 93 86 82 79 78 76 77 79 82 83 81 190 180 124 131 119 127 131 125 115 109
153 159 153 163 165 164 164 167 165 163 159 153 145 141 140 136 131 126 121 112 106 102 97 91 86 84 84 81 79 78 78 79 83 88 82 99 98 111 124 129 120 110 109
152 158 153 168 166 168 169 167 161 158 154 149 144 143 141 136 130 126 120 112 107 105 104 99 92 92 91 86 81 76 71 65 76 65 67 81 92 101 113 116 113 113 108
155 158 154 166 168 171 171 165 159 156 152 148 146 145 141 135 131 126 118 112 110 111 110 101 95 101 98 88 80 73 65 48 66 66 59 61 72 82 89 100 107 110 105
154 159 153 159 171 175 172 163 158 155 152 149 148 145 139 134 132 125 115 113 115 115 109 99 99 104 99 86 76 68 49 357 78 67 65 66 62 70 79 85 92 99 102
153 162 163 161 168 174 171 163 158 156 152 151 150 147 141 136 132 123 115 117 121 117 108 102 104 106 94 81 75 72 63 10 55 63 70 67 62 66 73 79 82 87 94
160 164 167 159 165 166 167 164 161 157 155 153 151 147 139 135 134 129 128 124 125 115 105 105 105 100 88 77 71 70 71 250 67 83 70 75 68 67 71 77 82 87 92
169 171 172 165 165 162 166 161 164 161 158 157 154 150 156 156 148 152 122 130 125 112 105 109 110 104 104 97 79 67 263 72 74 61 62 70 78 78 75 76 80 85 92
179 179 177 175 169 171 167 161 171 167 165 172 163 161 170 154 150 134 126 136 127 118 114 114 122 144 188 96 118 206 89 84 74 70 61 49 80 88 84 79 79 85 91
180 179 184 181 178 175 171 168 170 168 173 178 168 164 170 155 154 151 152 150 147 154 134 137 162 105 71 64 65 79 67 67 63 64 56 42 58 79 86 84 80 83 93
185 185 186 187 180 186 180 174 178 174 176 178 176 175 172 170 172 166 168 160 161 159 142 145 123 100 74 77 80 83 80 69 65 65 58 50 57 67 73 76 75 73 74
193 193 193 192 189 188 184 181 188 186 184 182 181 186 182 178 183 174 173 168 172 163 161 151 146 111 92 76 68 72 78 73 72 75 67 60 61 67 70 71 70 69 68
203 200 197 196 195 193 190 191 192 188 186 191 190 198 193 187 187 180 180 173 175 175 164 163 144 130 108 90 81 75 75 78 75 82 84 71 64 61 62 66 69 70 69
211 209 204 201 199 199 199 198 195 195 192 192 191 203 202 193 191 187 185 179 177 176 169 162 145 136 119 116 105 90 78 72 80 80 78 78 74 64 55 56 59 63 65
221 219 211 203 204 202 200 198 199 203 200 193 192 201 206 200 196 188 188 187 179 178 174 162 165 155 144 141 123 105 94 83 71 71 74 75 70 70 63 52 52 54 57
231 229 223 214 210 206 199 195 201 207 206 202 196 195 207 207 199 191 195 192 185 183 182 177 176 170 160 151 134 121 100 88 89 79 76 73 76 71 74 71 62 52 49
236 234 232 226 218 207 195 196 198 212 214 207 202 199 202 208 206 196 197 202 192 186 188 187 182 181 167 169 155 135 117 111 99 83 78 76 72 69 66 61 68 66 53
226 231 227 223 214 200 189 191 197 204 212 211 208 204 200 205 208 203 207 209 200 197 196 194 184 182 180 177 163 155 145 142 113 115 95 91 86 76 75 66 56 48 62
174 194 205 202 197 192 192 194 203 203 213 211 208 208 203 202 204 206 208 210 210 209 202 197 188 186 186 190 188 173 166 167 180 158 145 114 108 97 78 72 70 60 49
145 143 159 173 179 187 184 181 180 184 193 198 206 207 206 204 204 207 213 213 217 213 206 200 194 190 190 202 207 200 193 179 163 180 180 179 146 127 109 78 72 69 63
133 132 144 156 168 177 181 190 196 207 214 218 215 208 206 207 206 208 212 212 217 217 211 204 200 199 196 200 211 230 241 167 174 165 193 196 188 185 162 138 99 76 66
134 135 139 147 158 170 187 193 206 218 224 215 212 213 210 206 209 208 211 209 209 209 207 203 201 204 203 205 205 207 213 203 235 192 172 184 195 202 191 181 162 110 80
145 143 146 150 151 163 180 192 205 203 205 205 210 212 209 203 205 208 206 204 200 194 191 192 200 207 213 213 213 211 209 209 223 215 195 180 186 184 189 191 197 172 145
Height
1517 1519 1519 1521 1523 1524 1526 1527 1528 1530 1531 1531 1532 1533 1533 1534 1534 1535 1535 1535 1535 1535 1535 1535 1535 1535 1535 1535 1535 1535 1534 1535 1535 1536 1536 1537 1537 1538 1538 1538 1538 1538 1537
1517 1519 1519 1522 1523 1525 1526 1527 1529 1530 1531 1532 1532 1533 1534 1535 1535 1536 1536 1536 1536 1536 1536 1536 1536 1536 1537 1536 1536 1535 1535 1536 1536 1537 1538 1538 1538 1539 1539 1539 1539 1539 1538
1517 1519 1520 1522 1524 1525 1526 1528 1529 1530 1531 1532 1533 1534 1535 1535 1536 1536 1537 1537 1537 1537 1537 1538 1538 1538 1538 1537 1537 1536 1536 1537 1537 1538 1539 1540 1539 1539 1540 1540 1540 1540 1539
1518 1519 1521 1522 1524 1525 1526 1528 1529 1530 1532 1533 1534 1535 1535 1536 1537 1537 1538 1538 1538 1538 1539 1539 1539 1540 1539 1539 1538 1537 1537 1538 1538 1539 1541 1541 1541 1540 1540 1540 1540 1541 1541
1518 1520 1521 1522 1524 1525 1527 1528 1529 1531 1532 1533 1534 1535 1536 1537 1538 1538 1538 1539 1539 1539 1540 1540 1541 1541 1541 1540 1539 1539 1539 1539 1539 1540 1540 1540 1541 1540 1541 1541 1541 1541 1541
1519 1520 1521 1522 1524 1525 1527 1528 1530 1531 1533 1534 1535 1536 1537 1538 1539 1539 1539 1539 1540 1540 1541 1541 1542 1542 1542 1542 1541 1540 1540 1540 1540 1540 1540 1540 1541 1541 1541 1542 1542 1542 1542
1520 1521 1522 1522 1524 1526 1527 1529 1530 1531 1533 1534 1535 1536 1537 1539 1539 1540 1540 1540 1541 1541 1542 1543 1543 1543 1543 1543 1542 1542 1541 1541 1542 1541 1541 1541 1541 1541 1542 1543 1543 1543 1543
1521 1522 1523 1523 1524 1526 1527 1529 1530 1531 1533 1534 1536 1537 1538 1539 1540 1541 1541 1541 1542 1543 1543 1544 1545 1545 1544 1544 1544 1543 1542 1542 1543 1544 1543 1542 1542 1542 1543 1543 1543 1544 1544
1522 1523 1524 1524 1524 1525 1527 1529 1530 1532 1533 1535 1536 1538 1539 1540 1541 1541 1542 1543 1543 1544 1544 1545 1546 1546 1546 1545 1545 1544 1543 1543 1545 1545 1545 1544 1543 1544 1544 1544 1544 1544 1545
1522 1523 1524 1525 1526 1527 1528 1529 1531 1532 1534 1535 1537 1538 1540 1541 1541 1542 1543 1544 1545 1545 1546 1547 1547 1547 1547 1546 1545 1544 1544 1545 1546 1547 1547 1545 1544 1545 1545 1545 1545 1545 1545
1522 1523 1524 1526 1526 1527 1528 1529 1531 1532 1534 1536 1537 1539 1540 1542 1543 1544 1544 1545 1546 1547 1547 1548 1549 1549 1548 1547 1546 1545 1545 1547 1547 1547 1546 1545 1545 1545 1545 1546 1546 1546 1546
1522 1523 1524 1526 1526 1528 1529 1529 1531 1533 1534 1536 1538 1539 1542 1544 1545 1546 1544 1546 1547 1548 1549 1550 1550 1550 1551 1551 1548 1547 1549 1548 1548 1548 1547 1546 1546 1546 1546 1546 1546 1546 1546
1521 1522 1523 1525 1526 1528 1529 1530 1531 1533 1534 1537 1539 1540 1542 1544 1545 1546 1547 1547 1549 1550 1552 1551 1553 1554 1553 1551 1551 1551 1550 1550 1549 1549 1547 1547 1547 1547 1547 1547 1547 1547 1547
1520 1521 1523 1524 1526 1527 1529 1530 1531 1533 1534 1536 1538 1540 1542 1543 1545 1547 1548 1549 1550 1552 1553 1554 1554 1554 1554 1554 1553 1553 1551 1551 1550 1549 1548 1548 1548 1548 1548 1548 1548 1548 1547
1519 1520 1522 1523 1525 1527 1528 1529 1530 1532 1534 1535 1536 1539 1541 1542 1544 1546 1548 1548 1550 1552 1553 1554 1555 1555 1556 1555 1554 1554 1553 1552 1551 1550 1549 1549 1549 1549 1549 1549 1549 1548 1548
1517 1519 1520 1521 1523 1524 1526 1527 1529 1531 1531 1534 1535 1537 1540 1542 1543 1545 1547 1547 1550 1552 1554 1555 1555 1556 1556 1556 1555 1554 1554 1554 1553 1552 1552 1551 1551 1551 1551 1551 1550 1549 1549
1515 1517 1518 1519 1520 1522 1524 1526 1528 1529 1530 1531 1533 1535 1538 1540 1542 1543 1546 1547 1549 1551 1553 1554 1555 1556 1556 1557 1556 1556 1556 1556 1555 1555 1554 1553 1553 1553 1552 1552 1552 1551 1550
1512 1514 1515 1516 1517 1519 1521 1523 1525 1527 1528 1529 1531 1532 1535 1538 1541 1542 1544 1546 1548 1550 1552 1553 1555 1556 1557 1557 1558 1558 1557 1556 1556 1556 1556 1555 1555 1555 1554 1554 1553 1553 1552
1508 1510 1512 1513 1514 1516 1517 1519 1521 1524 1525 1527 1528 1529 1532 1536 1538 1540 1542 1545 1547 1548 1550 1552 1554 1555 1556 1557 1558 1558 1558 1558 1557 1558 1557 1557 1556 1556 1556 1555 1555 1554 1553
1504 1505 1507 1509 1510 1511 1512 1515 1517 1519 1521 1523 1525 1526 1529 1532 1535 1538 1539 1542 1544 1545 1547 1549 1551 1553 1555 1556 1557 1558 1558 1558 1558 1558 1558 1558 1557 1557 1557 1556 1556 1555 1555
1499 1501 1502 1503 1505 1506 1507 1509 1512 1514 1517 1519 1521 1523 1525 1527 1531 1534 1536 1539 1540 1542 1544 1547 1549 1551 1553 1555 1556 1557 1557 1558 1559 1558 1559 1559 1558 1558 1558 1557 1557 1556 1556
1496 1498 1499 1499 1500 1501 1502 1505 1508 1511 1513 1515 1516 1519 1521 1523 1525 1528 1531 1534 1536 1538 1541 1543 1545 1548 1550 1552 1554 1555 1556 1558 1557 1558 1559 1559 1560 1559 1559 1559 1558 1557 1557
1494 1495 1496 1497 1497 1498 1499 1501 1504 1506 1509 1510 1512 1514 1516 1518 1521 1523 1527 1530 1532 1535 1537 1539 1542 1544 1546 1549 1552 1554 1554 1555 1556 1558 1558 1559 1559 1559 1559 1559 1559 1559 1558
1493 1493 1494 1494 1495 1496 1497 1499 1501 1503 1505 1507 1508 1509 1511 1514 1516 1518 1521 1524 1527 1530 1533 1536 1538 1540 1543 1546 1549 1550 1553 1554 1554 1556 1557 1558 1558 1558 1559 1558 1559 1558 1558
1491 1492 1493 1493 1494 1495 1496 1497 1499 1501 1503 1503 1504 1505 1507 1508 1511 1513 1516 1519 1522 1525 1528 1531 1533 1536 1539 1542 1545 1547 1549 1551 1552 1553 1554 1555 1556 1557 1557 1557 1557 1557 1557
1490 1491 1492 1492 1493 1494 1494 1496 1498 1499 1500 1500 1501 1502 1503 1504 1506 1508 1510 1513 1516 1518 1522 1525 1529 1532 1535 1538 1542 1544 1546 1549 1550 1551 1552 1553 1554 1555 1554 1555 1555 1555 1555